Regional Weather Roundup
Issued by NWS

Home | Current Version | Previous Version | Text Only | Print | Product List | Glossary On
Versions: 1 2 3 4 5 6 7 8 9 10 11 12 13 14 15 16 17 18 19 20 21 22 23 24 25 26 27 28 29 30 31 32 33 34 35 36 37 38 39 40 41 42 43 44 45 46 47 48 49 50
000
ASUS44 KFWD 180615
RWRTX
NORTH TEXAS HOURLY WEATHER ROUNDUP
NATIONAL WEATHER SERVICE FORT WORTH TX
1200 AM CST WED JAN 18 2017

NOTE: "FAIR" INDICATES FEW OR NO CLOUDS BELOW 12,000 FEET WITH NO
SIGNIFICANT WEATHER AND/OR OBSTRUCTIONS TO VISIBILITY.

TXZ118-119-180700-
DALLAS/FORT WORTH METROPLEX

CITY           SKY/WX    TMP DP  RH WIND       PRES   REMARKS
DFW AIRPORT    LGT RAIN  48  46  93 CALM      30.12F
6HR MIN TEMP:  47; 6HR MAX TEMP:  51; 6HR PCP:  0.28;

DALLAS LOVE    RAIN      48  45  89 E9        30.13F
6HR MIN TEMP:  48; 6HR MAX TEMP:  51; 6HR PCP:  0.14;

FTW MEACHAM    LGT RAIN  48  44  86 NW8       30.16R
6HR MIN TEMP:  47; 6HR MAX TEMP:  50; 6HR PCP:  0.21;

DAL-EXECUTIVE  LGT RAIN  46  45  96 N10       30.12F
6HR MIN TEMP:  46; 6HR MAX TEMP:  48; 6HR PCP:  0.40;

FTW-ALLIANCE   LGT RAIN  46  44  93 NW5       30.17R
6HR MIN TEMP:  46; 6HR MAX TEMP:  49; 6HR PCP:  0.17;

FTW-NAS-JRB    CLOUDY    48  45  89 W8        30.17R
6HR MIN TEMP:  48; 6HR MAX TEMP:  50;

FTW-SPINKS     RAIN      47  45  93 CALM      30.15F
6HR MIN TEMP:  46; 6HR MAX TEMP:  47; 6HR PCP:  0.15;

ARLINGTON      RAIN      47  45  93 N5        30.13F FOG
6HR MIN TEMP:  47; 6HR MAX TEMP:  48; 6HR PCP:  0.17;

GRAND PRAIRIE  CLOUDY    47  47 100 NE5       30.15S
6HR MIN TEMP:  46; 6HR MAX TEMP:  47; 6HR PCP:  0.17;

ADDISON        CLOUDY    48  48 100 NE9       30.14F
6HR MIN TEMP:  47; 6HR MAX TEMP:  50;

MESQUITE       CLOUDY    46  45  98 NE3       30.13F
6HR MIN TEMP:  45; 6HR MAX TEMP:  48; 6HR PCP:  0.56;

LANCASTER      DRIZZLE   46  44  93 NE6       30.13F
6HR MIN TEMP:  46; 6HR MAX TEMP:  47; 6HR PCP:  0.28;

$$

TXZ091>094-102>105-117-120-121-131>134-180700-
NORTH CENTRAL TEXAS

CITY           SKY/WX    TMP DP  RH WIND       PRES   REMARKS
SHRMAN/DENISON LGT RAIN  46  46 100 N7        30.15F
6HR MIN TEMP:  45; 6HR MAX TEMP:  48; 6HR PCP:  0.21;

GAINESVILLE    CLOUDY    45  43  94 CALM      30.17R
6HR MIN TEMP:  45; 6HR MAX TEMP:  48; 6HR PCP:  0.20;

BOWIE          HVY RAIN  46  46 100 NW5       30.19R
6HR MIN TEMP:  46; 6HR MAX TEMP:  49; 6HR PCP:  0.43;

BRIDGEPORT     LGT RAIN  46  46 100 CALM      30.20R
6HR MIN TEMP:  46; 6HR MAX TEMP:  47; 6HR PCP:  0.24;

DECATUR        LGT RAIN  64  64 100 W9        30.19R
6HR MIN TEMP:  56; 6HR MAX TEMP:  67;

DENTON         CLOUDY    46  45  96 NE5       30.14F
6HR MIN TEMP:  45; 6HR MAX TEMP:  48; 6HR PCP:  0.23;

MCKINNEY       CLOUDY    46  45  96 NE6       30.13F
6HR MIN TEMP:  45; 6HR MAX TEMP:  49; 6HR PCP:  0.20;

BONHAM         RAIN      43  43 100 NW7       30.18R WCI  39
GREENVILLE     CLOUDY    45  43  93 N6        30.14F
ROCKWALL       LGT RAIN  46  46 100 NE7       30.14F
6HR MIN TEMP:  46; 6HR MAX TEMP:  49; 6HR PCP:  0.30;

TERRELL        CLOUDY    46  44  93 NE12      30.14R
6HR MIN TEMP:  46; 6HR MAX TEMP:  50; 6HR PCP:  0.31;

WAXAHACHIE     LGT RAIN  46  46 100 N7        30.12F
6HR MIN TEMP:  46; 6HR MAX TEMP:  47; 6HR PCP:  0.20;

CLEBURNE       CLOUDY    46  46 100 N8        30.15S
GRANBURY       LGT RAIN  48  46  91 NW6       30.17S
6HR MIN TEMP:  47; 6HR MAX TEMP:  48; 6HR PCP:  0.03;

$$

TXZ083>090-098>101-113>116-127>130-139>142-154-155-180700-
WESTERN NORTH TEXAS

CITY           SKY/WX    TMP DP  RH WIND       PRES   REMARKS
WICHITA FALLS  LGT RAIN  45  43  93 W7        30.19S
6HR MIN TEMP:  44; 6HR MAX TEMP:  45; 6HR PCP:  0.23;

WF-KICKAPOO    RAIN      45  44  96 NW3       30.21S
6HR MIN TEMP:  44; 6HR MAX TEMP:  46; 6HR PCP:  0.09;

VERNON         CLOUDY    45  41  86 NW5       30.20F
6HR MIN TEMP:  33; 6HR MAX TEMP:  53; 6HR PCP:  0.11;

ABILENE        CLOUDY    42  42 100 N5        30.18S WCI  39
6HR MIN TEMP:  42; 6HR MAX TEMP:  43; 6HR PCP:  0.08;

ABILENE-DYESS  CLOUDY    43  40  90 N6        30.17S WCI  39
6HR MIN TEMP:  42; 6HR MAX TEMP:  43; 6HR PCP:  0.08;

GRAHAM         RAIN      45  45 100 CALM      30.18S
BRECKENRIDGE   DRIZZLE   46  46  99 N5        30.18F
6HR MIN TEMP:  46; 6HR MAX TEMP:  46; 6HR PCP:  0.02;

CISCO          CLOUDY    45  45 100 N5        30.17F FOG
RANGER         LGT RAIN  45  45 100 N6        30.17S
MINERAL WELLS  LGT RAIN  46  44  93 N6        30.16R
6HR MIN TEMP:  45; 6HR MAX TEMP:  47; 6HR PCP:  0.20;

STEPHENVILLE   CLOUDY    46  43  92 CALM      30.18S
6HR MIN TEMP:  44; 6HR MAX TEMP:  46;

COMANCHE       DRIZZLE   45  45 100 NW7       30.17S
6HR MIN TEMP:  44; 6HR MAX TEMP:  45; 6HR PCP:  0.01;

BROWNWOOD      CLOUDY    46  46 100 N5        30.16F
COLEMAN        CLOUDY    45  45 100 N7        30.16F
$$

TXZ143>147-156>162-174-175-180700-
CENTRAL TEXAS

CITY           SKY/WX    TMP DP  RH WIND       PRES   REMARKS
WACO           LGT RAIN  46  46 100 N8        30.13S
6HR MIN TEMP:  46; 6HR MAX TEMP:  48; 6HR PCP:  0.42;

WACO-MCGREGOR  RAIN      46  45  93 N10       30.12F
6HR MIN TEMP:  46; 6HR MAX TEMP:  47; 6HR PCP:  0.35;

CORSICANA      RAIN      48  47  96 NE7       30.13F FOG
6HR MIN TEMP:  48; 6HR MAX TEMP:  52; 6HR PCP:  0.74;

MEXIA          RAIN      46  46  97 N7        30.11F
6HR MIN TEMP:  46; 6HR MAX TEMP:  48; 6HR PCP:  0.04;

HEARNE         RAIN      49  49  99 NW5       30.10F
6HR MIN TEMP:  48; 6HR MAX TEMP:  52; 6HR PCP:  0.15;

CAMERON        DRIZZLE   48  47  96 N9        30.11S
6HR MIN TEMP:  48; 6HR MAX TEMP:  51; 6HR PCP:  1.35;

TEMPLE         HVY RAIN  46  45  96 N10       30.12S FOG
6HR MIN TEMP:  46; 6HR MAX TEMP:  48; 6HR PCP:  0.68;

KILLEEN        LGT RAIN  45  45 100 N8        30.11S
6HR MIN TEMP:  44; 6HR MAX TEMP:  45; 6HR PCP:  0.13;

KILLEEN-SKYLRK LGT RAIN  45  44  97 N8        30.12S
6HR MIN TEMP:  45; 6HR MAX TEMP:  47; 6HR PCP:  0.38;

GATESVILLE     CLOUDY    46  46 100 N5        30.15S
HAMILTON       LGT RAIN  46  46 100 N6        30.14S
6HR MIN TEMP:  45; 6HR MAX TEMP:  46;

LAMPASAS       CLOUDY    45  44  96 N3        30.13R
6HR MIN TEMP:  44; 6HR MAX TEMP:  45; 6HR PCP:  0.03;

$$

TXZ095>097-106>112-122>126-135>138-148>153-164>167-180700-
EAST TEXAS

CITY           SKY/WX    TMP DP  RH WIND       PRES   REMARKS
PARIS          CLOUDY    45  41  87 NW5       30.19R
6HR MIN TEMP:  45; 6HR MAX TEMP:  48; 6HR PCP:  0.17;

SULPHUR SPRNGS HVY RAIN  46  45  97 NE8       30.16F
6HR MIN TEMP:  46; 6HR MAX TEMP:  50; 6HR PCP:  0.24;

MOUNT PLEASANT CLOUDY    47  47 100 NW6       30.18S
6HR MIN TEMP:  47; 6HR MAX TEMP:  50; 6HR PCP:  0.85;

GILMER         HVY RAIN  46  46  97 NW3       30.16S
6HR MIN TEMP:  46; 6HR MAX TEMP:  49; 6HR PCP:  0.37;

MINEOLA        RAIN      46  45  93 NE5       30.16F FOG
TYLER          LGT RAIN  48  46  93 NE10      30.13F
6HR MIN TEMP:  48; 6HR MAX TEMP:  50; 6HR PCP:  0.32;

LONGVIEW       CLOUDY    50  49  96 NE8       30.14F
6HR MIN TEMP:  50; 6HR MAX TEMP:  51; 6HR PCP:  0.05;

MARSHALL       CLOUDY    50  48  92 N5        30.18R
6HR MIN TEMP:  50; 6HR MAX TEMP:  50; 6HR PCP:  0.03;

ATHENS         RAIN      45  45 100 NE9       30.10F WCI  40
PALESTINE      RAIN      49  49  99 N15       30.11F
JACKSONVILLE   LGT RAIN  48  48 100 NE8       30.13F
HENDERSON      CLOUDY    49  49 100 NE7       30.15F
6HR MIN TEMP:  49; 6HR MAX TEMP:  50; 6HR PCP:  0.02;

CENTER         CLOUDY    54  53  95 N3        30.13F
6HR MIN TEMP:  54; 6HR MAX TEMP:  54; 6HR PCP:  0.04;

NACOGDOCHES    CLOUDY    54  52  94 N5        30.09F
6HR MIN TEMP:  52; 6HR MAX TEMP:  54;

LUFKIN         CLOUDY    55  54  96 NE5       30.07F
6HR MIN TEMP:  53; 6HR MAX TEMP:  55; 6HR PCP: TRACE;

$$

SUPPLEMENTAL OBSERVATIONS (CENTRAL)

CITY           SKY/WX    TMP DP  RH WIND       PRES   REMARKS
DENISON DAM      N/A     45  41  87 SE3         N/A
CADDO GRASSLND   N/A     45  41  87 N2          N/A
PAT MAYSE LAKE   N/A     45  43  93 NW2         N/A
ATHENS           N/A     46  43  87 NE7         N/A
LAKE LIMESTONE   N/A     48  45  87 N9          N/A
MCGREGOR         N/A     46  45  93 N9          N/A



USA.gov is the U.S. government's official web portal to all federal, state and local government web resources and services.